Location: Newark
(40.9833°N, 0.0333°W)
Time: 03:41:52
(UTC+00:00)

Transit 2A Rocket - Pass Details

Date: 04 November 2020
Orbit: 588 x 914 km, 66.7° (Epoch: 26 November)

Event Time Altitude Azimuth Distance (km) Brightness Sun altitude
Rises 07:28:30 0° 199° (SSW) 3,529 8.6 8.4°
Reaches altitude 10° 07:31:03 10° 197° (SSW) 2,595 8.0 8.8°
Maximum altitude 07:37:04 67° 116° (ESE) 976 6.1 9.8°
Drops below altitude 10° 07:42:57 10° 35° (NE) 2,527 7.8 10.7°
Sets 07:45:23 0° 33° (NNE) 3,430 8.4 11.1°
